Location: Borotín
(49.5055°N, 14.6142°E)
Time: 12:10:10
(UTC+00:00)

Meteor 1-28 Rocket - Pass Details

Date: 27 May 2022
Orbit: 499 x 518 km, 97.4° (Epoch: 26 June)

Event Time Altitude Azimuth Distance (km) Brightness Sun altitude
Exits shadow 01:46:49 12° 195° (SSW) 1,619 5.1 -10.0°
Maximum altitude 01:50:01 38° 262° (W) 802 3.8 -9.7°
Drops below altitude 10° 01:53:32 10° 332° (NNW) 1,736 6.2 -9.3°
Sets 01:55:44 0° 341° (NNW) 2,623 7.2 -9.1°
